Location: Brusselsch Zeekanaal
(50.8667°N, 4.3667°E)
Time: 03:35:25
(UTC+00:00)

Resurs 1-4 Rocket - Visible Passes

Search period start: 19 February 2026 00:00
Search period end: 01 March 2026 00:00
Orbit: 797 x 813 km, 98.8° (Epoch: 18 February)

Date Brightness Start Highest point End Pass type
(mag) Time Alt. Az. Time Alt. Az. Time Alt. Az.
19 Feb 4.6 02:09:09 10° NNE 02:10:09 16° NNE 02:10:09 16° NNE visible
19 Feb 3.9 03:49:23 10° N 03:51:11 19° NNW 03:51:11 19° NNW visible
20 Feb 4.9 01:44:11 10° NNE 01:44:46 13° NE 01:44:46 13° NE visible
20 Feb 3.9 03:23:54 10° N 03:25:49 21° N 03:25:49 21° N visible
21 Feb 4.0 02:58:33 10° N 03:00:25 22° N 03:00:25 22° N visible
21 Feb 4.1 04:40:04 10° NNW 04:41:28 13° NW 04:41:28 13° NW visible
22 Feb 4.2 02:33:18 10° NNE 02:35:03 22° NNE 02:35:03 22° NNE visible
22 Feb 3.9 04:14:04 10° N 04:16:05 17° NNW 04:16:05 17° NNW visible
23 Feb 4.4 02:08:11 10° NNE 02:09:40 19° NNE 02:09:40 19° NNE visible
23 Feb 3.7 03:48:25 10° N 03:50:43 22° NNW 03:50:43 22° NNW visible
24 Feb 4.7 01:43:14 10° NNE 01:44:18 15° NE 01:44:18 15° NE visible
24 Feb 3.7 03:22:55 10° N 03:25:21 25° N 03:25:21 25° N visible
25 Feb 5.0 01:18:33 10° NE 01:18:55 11° NE 01:18:55 11° NE visible
25 Feb 3.7 02:57:34 10° N 02:59:58 27° N 02:59:58 27° N visible
25 Feb 4.0 04:39:02 10° NNW 04:41:01 14° NW 04:41:01 14° NW visible
26 Feb 3.9 02:32:20 10° NNE 02:34:36 26° NNE 02:34:36 26° NNE visible
26 Feb 3.7 04:13:04 10° N 04:15:38 19° NW 04:15:38 19° NW visible
27 Feb 4.2 02:07:14 10° NNE 02:09:13 23° NNE 02:09:13 23° NNE visible
27 Feb 3.5 03:47:25 10° N 03:50:15 24° NNW 03:50:15 24° NNW visible
28 Feb 4.5 01:42:17 10° NNE 01:43:50 18° NE 01:43:50 18° NE visible
28 Feb 3.4 03:21:57 10° N 03:24:53 30° NNW 03:24:53 30° NNW visible
